Weather History for Billings, MT

Change the Weather History Date:

Sunday, May 4, 2014

  Actual Average Record
Temperature  
Mean Temperature 51 °F 52 °F  
Max Temperature 60 °F 64 °F 87 °F (1936)
Min Temperature 41 °F 40 °F 21 °F (1967)
Degree Days  
Heating Degree Days 14 13  
Month to date heating degree days 55 55  
Since 1 July heating degree days 6837 6432  
Cooling Degree Days 0 0  
Month to date cooling degree days 0 0  
Year to date cooling degree days 0 1  
Moisture  
Dew Point 39 °F    
Average Humidity 66    
Maximum Humidity 86    
Minimum Humidity 46    
Precipitation  
Precipitation T in 0.06 in 1.33 in (1980)
Month to date precipitation T 0.25  
Year to date precipitation 5.58 3.93  
Snow  
Snow 0.00 in 0.10 in 0.70 in (1950)
Month to date snowfall 0.0 0.5  
Since 1 July snowfall 101.4 53.5  
Snow Depth 0.00 in    
Sea Level Pressure  
Sea Level Pressure 29.83 in    
Wind  
Wind Speed 7 mph (North)    
Max Wind Speed 17 mph    
Max Gust Speed 21 mph    
Visibility 10 miles    
Events Rain    
T = Trace of Precipitation, MM = Missing Value Source: NWS Daily Summary

Daily Weather History Graph

Daily Weather History Graph

Search for Another Location

Airport:

Trip Planner

Search our weather history database for the weather conditions in past years. The results will help you decide how hot, cold, wet, or windy it might be!

Date:

Astronomy

May. 04, 2014 Rise Set
Actual Time 5:57 AM MDT 8:25 PM MDT
Civil Twilight 5:23 AM MDT 8:59 PM MDT
Nautical Twilight 4:41 AM MDT 9:41 PM MDT
Astronomical Twilight 3:54 AM MDT 10:29 PM MDT
Moon 10:22 AM MDT (5/4) 12:34 AM MDT (5/4)
Length of Visible Light 15h 35m
Length of Day
14h 28m
Waxing Crescent, 28% of the Moon is Illuminated
May 4
Waxing Crescent
May 6
First Quarter
May 14
Full
May 21
Last Quarter
May 28
New

Hourly Weather History & Observations

Time (MDT) Temp. Windchill Dew Point Humidity Pressure Visibility Wind Dir Wind Speed Gust Speed Precip Events Conditions
12:53 AM 42.1 °F 37.1 °F 35.1 °F 76% 29.91 in 10.0 mi NNE 8.1 mph - N/A   Overcast
1:53 AM 41.0 °F 35.2 °F 35.1 °F 79% 29.90 in 10.0 mi North 9.2 mph - N/A   Overcast
2:53 AM 41.0 °F 36.4 °F 35.1 °F 79% 29.89 in 10.0 mi North 6.9 mph - N/A   Overcast
3:53 AM 41.0 °F 38.0 °F 36.0 °F 82% 29.87 in 10.0 mi NNE 4.6 mph - N/A   Overcast
4:53 AM 41.0 °F 39.0 °F 36.0 °F 82% 29.86 in 10.0 mi North 3.5 mph - N/A   Overcast
5:53 AM 41.0 °F 38.0 °F 36.0 °F 82% 29.85 in 10.0 mi North 4.6 mph - N/A   Overcast
6:53 AM 41.0 °F - 36.0 °F 82% 29.85 in 10.0 mi Calm Calm - N/A   Overcast
7:53 AM 42.1 °F - 36.0 °F 79% 29.82 in 10.0 mi Calm Calm - N/A   Overcast
8:53 AM 43.0 °F 41.3 °F 37.0 °F 80% 29.80 in 10.0 mi SSW 3.5 mph - N/A   Overcast
9:53 AM 45.0 °F 41.2 °F 37.9 °F 76% 29.79 in 10.0 mi WSW 6.9 mph - N/A   Mostly Cloudy
10:53 AM 46.0 °F 42.5 °F 37.9 °F 73% 29.79 in 10.0 mi West 6.9 mph - N/A   Mostly Cloudy
11:53 AM 48.9 °F - 39.0 °F 69% 29.80 in 10.0 mi West 10.4 mph - N/A   Overcast
12:53 PM 53.1 °F - 37.9 °F 57% 29.81 in 10.0 mi NW 15.0 mph - N/A   Mostly Cloudy
1:53 PM 54.0 °F - 39.0 °F 57% 29.81 in 10.0 mi NNW 9.2 mph - N/A   Scattered Clouds
2:53 PM 55.9 °F - 39.9 °F 55% 29.81 in 10.0 mi NNE 6.9 mph - N/A   Partly Cloudy
3:53 PM 59.0 °F - 41.0 °F 51% 29.78 in 10.0 mi NE 9.2 mph - N/A   Scattered Clouds
4:53 PM 60.1 °F - 39.9 °F 47% 29.76 in 10.0 mi East 5.8 mph - N/A   Scattered Clouds
5:53 PM 59.0 °F - 39.9 °F 49% 29.78 in 10.0 mi East 5.8 mph - 0.00 in Rain Light Rain
6:53 PM 57.9 °F - 39.9 °F 51% 29.77 in 10.0 mi South 9.2 mph - 0.00 in   Mostly Cloudy
7:53 PM 57.0 °F - 43.0 °F 59% 29.80 in 10.0 mi SSE 4.6 mph - 0.00 in Rain Light Rain
8:53 PM 54.0 °F - 44.1 °F 69% 29.83 in 10.0 mi NNW 8.1 mph - 0.00 in   Mostly Cloudy
9:53 PM 48.9 °F - 45.0 °F 86% 29.85 in 10.0 mi NNE 9.2 mph - N/A   Mostly Cloudy
10:53 PM 48.0 °F - 43.0 °F 83% 29.86 in 10.0 mi North 9.2 mph - N/A   Mostly Cloudy
11:53 PM 46.4 °F 41.1 °F 42.8 °F 87% 29.84 in 10.0 mi NE 11.5 mph - N/A   Mostly Cloudy